East Taunton, MA

1:53 PM EDT on September 30, 2016 (GMT -0400)
Taunton Municipal

Weather History for KTAN - May, 2013

Change the Weather History Date:

Thursday, May 16, 2013

  Actual Average Record
Temperature  
Mean Temperature 64 °F -  
Max Temperature 82 °F 69 °F 85 °F (1951)
Min Temperature 46 °F 45 °F 33 °F (1977)
Degree Days  
Heating Degree Days 1    
Growing Degree Days 14 (Base 50)    
Moisture  
Dew Point 46 °F    
Average Humidity 67    
Maximum Humidity 97    
Minimum Humidity 19    
Precipitation  
Precipitation 0.00 in - - ()
Sea Level Pressure  
Sea Level Pressure 29.69 in    
Wind  
Wind Speed 5 mph (SW)    
Max Wind Speed 15 mph    
Max Gust Speed 22 mph    
Visibility 7 miles    
Events Fog    
Averages and records for this station are not official NWS values.
T = Trace of Precipitation, MM = Missing Value Source: NWS Daily Summary

Daily Weather History Graph

Daily Weather History Graph

Search for Another Location

Airport or City:

Trip Planner

Search our weather history database for the weather conditions in past years. The results will help you decide how hot, cold, wet, or windy it might be!

Date:

Astronomy

May. 16, 2013 Rise Set
Actual Time 5:22 AM EDT 7:58 PM EDT
Civil Twilight 4:50 AM EDT 8:30 PM EDT
Nautical Twilight 4:10 AM EDT 9:10 PM EDT
Astronomical Twilight 3:25 AM EDT 9:56 PM EDT
Moon 10:54 AM EDT (5/16) 12:16 AM EDT (5/16)
Length of Visible Light 15h 39m
Length of Day
14h 35m
Waxing Crescent, 35% of the Moon is Illuminated
May 16
Waxing Crescent
May 18
First Quarter
May 25
Full
May 31
Last Quarter
Jun 8
New

Hourly Weather History & Observations

Time (EDT) Temp. Dew Point Humidity Pressure Visibility Wind Dir Wind Speed Gust Speed Precip Events Conditions
12:52 AM 55.0 °F 52.0 °F 89% 29.69 in 7.0 mi SW 5.8 mph - N/A   Clear
1:52 AM 54.0 °F 52.0 °F 93% 29.68 in 7.0 mi WSW 4.6 mph - N/A   Clear
2:52 AM 51.1 °F 48.9 °F 92% 29.67 in 4.0 mi Calm Calm - N/A   Clear
3:18 AM 48.9 °F 48.0 °F 97% 29.66 in 1.8 mi Calm Calm - N/A   Clear
3:26 AM 48.9 °F 48.0 °F 97% 29.67 in 1.2 mi Calm Calm - N/A   Clear
3:30 AM 48.9 °F 46.9 °F 93% 29.67 in 2.0 mi Calm Calm - N/A   Clear
3:47 AM 53.6 °F 50.0 °F 88% 29.67 in 5.0 mi SSW 6.9 mph - N/A   Clear
3:52 AM 53.1 °F 51.1 °F 93% 29.67 in 6.0 mi SW 3.5 mph - N/A   Clear
4:43 AM 48.9 °F 46.9 °F 93% 29.67 in 1.5 mi Calm Calm - N/A   Clear
4:45 AM 48.0 °F 46.0 °F 93% 29.67 in 0.8 mi Calm Calm - N/A   Mist
4:52 AM 46.9 °F 46.0 °F 97% 29.67 in 0.2 mi Calm Calm - N/A Fog Fog
5:13 AM 46.0 °F 45.0 °F 96% 29.67 in 1.5 mi Calm Calm - N/A   Partly Cloudy
5:15 AM 46.0 °F 44.1 °F 93% 29.66 in 4.0 mi Calm Calm - N/A   Partly Cloudy
5:52 AM 50.0 °F 48.0 °F 93% 29.68 in 9.0 mi SSW 3.5 mph - N/A   Clear
6:52 AM 55.9 °F 51.1 °F 84% 29.70 in 10.0 mi SSW 4.6 mph - N/A   Clear
7:52 AM 64.0 °F 48.9 °F 58% 29.70 in 10.0 mi SW 5.8 mph - N/A   Clear
8:52 AM 64.9 °F 46.9 °F 52% 29.72 in 10.0 mi WSW 9.2 mph 16.1 mph N/A   Clear
9:52 AM 66.9 °F 46.9 °F 49% 29.72 in 10.0 mi West 10.4 mph - N/A   Clear
10:52 AM 73.0 °F 46.9 °F 39% 29.73 in 10.0 mi WSW 8.1 mph - N/A   Clear
11:52 AM 75.0 °F 39.0 °F 27% 29.72 in 10.0 mi West 13.8 mph 18.4 mph N/A   Clear
12:52 PM 79.0 °F 33.1 °F 19% 29.69 in 10.0 mi West 15.0 mph 21.9 mph N/A   Clear
1:52 PM 81.0 °F 35.1 °F 19% 29.68 in 10.0 mi West 9.2 mph 18.4 mph N/A   Clear
2:52 PM 82.0 °F 36.0 °F 19% 29.66 in 10.0 mi WSW 11.5 mph 17.3 mph N/A   Clear
3:52 PM 78.1 °F 46.0 °F 32% 29.67 in 10.0 mi SSW 13.8 mph 20.7 mph N/A   Clear
4:52 PM 77.0 °F 46.0 °F 33% 29.66 in 10.0 mi SSW 10.4 mph 20.7 mph N/A   Clear
5:52 PM 75.9 °F 46.9 °F 36% 29.66 in 10.0 mi SSW 8.1 mph 20.7 mph N/A   Partly Cloudy
6:52 PM 73.0 °F 46.9 °F 39% 29.67 in 10.0 mi SSW 12.7 mph 20.7 mph N/A   Clear
7:52 PM 70.0 °F 46.9 °F 44% 29.70 in 10.0 mi SSW 9.2 mph - N/A   Clear
8:52 PM 66.9 °F 48.0 °F 51% 29.73 in 10.0 mi SW 5.8 mph - N/A   Clear
9:52 PM 64.9 °F 48.0 °F 54% 29.76 in 10.0 mi SW 6.9 mph - N/A   Clear
10:52 PM 55.0 °F 50.0 °F 83% 29.78 in 10.0 mi Calm Calm - N/A   Clear
11:52 PM 51.1 °F 48.0 °F 89% 29.80 in 10.0 mi Calm Calm - N/A   Clear